| time (UTC) | temp F | wind direction | speed knots | gust knots | rain 1hr in | rain 24hr in | rain mn in | humidity % | barometer mb |
| 20260905230100 | 59 | 0.0 | 0.0 | 0.00 | 0.00 | 0.00 | 80 | 1014.3 | |
| 20260905224609 | 59 | 0.0 | 0.0 | 0.00 | 0.00 | 0.00 | 79 | 1014.2 | |
| 20260905223055 | 59 | 0.0 | 0.0 | 0.00 | 0.00 | 0.00 | 79 | 1014.0 | |
| 20260905221605 | 59 | 0.0 | 0.0 | 0.00 | 0.00 | 0.00 | 79 | 1013.7 | |
| 20260905220108 | 59 | 0.0 | 0.0 | 0.00 | 0.00 | 0.00 | 80 | 1013.4 | |
| 20260905214555 | 59 | 0.0 | 0.0 | 0.00 | 0.00 | 0.00 | 80 | 1013.2 | |
| 20260905213102 | 59 | 0.0 | 0.0 | 0.00 | 0.00 | 0.00 | 79 | 1013.0 | |
| 20260905211629 | 59 | 0.0 | 0.0 | 0.00 | 0.00 | 0.00 | 79 | 1012.7 | |
| 20260905210124 | 59 | 0.0 | 0.0 | 0.00 | 0.00 | 0.00 | 79 | 1012.4 | |
| 20260905204608 | 59 | 0.0 | 0.0 | 0.00 | 0.00 | 0.00 | 80 | 1012.2 | |
| 20260905203118 | 59 | 0.0 | 0.0 | 0.00 | 0.00 | 0.00 | 79 | 1012.1 | |
| 20260905201601 | 59 | 0.0 | 0.0 | 0.00 | 0.00 | 0.00 | 78 | 1011.7 | |
| 20260905200107 | 59 | 0.0 | 0.0 | 0.00 | 0.00 | 0.00 | 78 | 1011.7 | |
| 20260905194603 | 59 | 0.0 | 0.0 | 0.00 | 0.00 | 0.00 | 76 | 1011.8 | |
| 20260905193057 | 59 | 0.0 | 0.0 | 0.00 | 0.00 | 0.00 | 76 | 1011.7 | |
| 20260905191558 | 59 | 0.0 | 0.0 | 0.00 | 0.00 | 0.00 | 76 | 1011.5 | |
| 20260905190105 | 58 | 0.0 | 0.0 | 0.00 | 0.00 | 0.00 | 79 | 1011.4 | |
| 20260905184606 | 58 | 0.0 | 0.0 | 0.00 | 0.03 | 0.00 | 79 | 1011.3 | |
| 20260905183100 | 59 | 0.0 | 0.0 | 0.00 | 0.03 | 0.00 | 79 | 1011.3 | |
| 20260905181610 | 59 | 0.0 | 0.0 | 0.00 | 0.03 | 0.00 | 78 | 1011.0 | |
| 20260905180109 | 60 | 0.0 | 0.0 | 0.00 | 0.03 | 0.00 | 75 | 1010.9 | |
| 20260905174559 | 60 | 0.0 | 0.0 | 0.00 | 0.16 | 0.00 | 74 | 1010.8 | |
| 20260905173103 | 61 | 0.0 | 0.0 | 0.00 | 0.16 | 0.00 | 73 | 1010.6 | |
| 20260905171557 | 61 | 0.0 | 0.0 | 0.00 | 0.16 | 0.00 | 72 | 1010.4 | |
| 20260905170107 | 62 | 0.0 | 0.0 | 0.00 | 0.16 | 0.00 | 72 | 1010.4 | |
| 20260905164559 | 62 | 0.0 | 0.0 | 0.00 | 0.16 | 0.00 | 72 | 1010.3 | |
| 20260905163108 | 62 | 0.0 | 0.0 | 0.00 | 0.16 | 0.00 | 72 | 1010.1 | |
| 20260905161602 | 63 | 0.0 | 0.0 | 0.00 | 0.16 | 0.00 | 71 | 1009.9 | |
| 20260905160135 | 63 | 0.0 | 0.0 | 0.00 | 0.16 | 0.00 | 69 | 1009.7 | |
| 20260905154605 | 64 | 0.0 | 0.0 | 0.00 | 0.16 | 0.00 | 68 | 1009.6 | |
| 20260905153103 | 65 | 0.0 | 0.0 | 0.00 | 0.16 | 0.00 | 69 | 1009.5 | |
| 20260905151609 | 65 | 0.0 | 0.0 | 0.00 | 0.16 | 0.00 | 68 | 1009.3 | |
| 20260905150100 | 64 | 0.0 | 0.0 | 0.00 | 0.16 | 0.00 | 69 | 1009.2 | |
| 20260905144602 | 65 | 0.0 | 0.0 | 0.00 | 0.17 | 0.00 | 67 | 1009.0 | |
| 20260905143059 | 66 | 0.0 | 0.0 | 0.00 | 0.17 | 0.00 | 68 | 1008.9 | |
| 20260905141556 | 65 | 0.0 | 0.0 | 0.00 | 0.17 | 0.00 | 68 | 1009.0 | |
| 20260905134604 | 65 | 0.0 | 0.0 | 0.00 | 0.25 | 0.00 | 68 | 1008.6 | |
| 20260905133058 | 65 | 0.0 | 0.0 | 0.00 | 0.25 | 0.00 | 68 | 1008.8 | |
| 20260905131600 | 66 | 0.0 | 0.0 | 0.00 | 0.25 | 0.00 | 66 | 1008.6 | |
| 20260905130057 | 65 | 0.0 | 0.0 | 0.00 | 0.25 | 0.00 | 68 | 1008.5 | |
| 20260905124558 | 65 | 0.0 | 0.0 | 0.00 | 0.30 | 0.00 | 67 | 1008.3 | |
| 20260905123058 | 65 | 0.0 | 0.0 | 0.00 | 0.30 | 0.00 | 67 | 1008.0 | |
| 20260905121605 | 65 | 0.0 | 0.0 | 0.00 | 0.30 | 0.00 | 64 | 1008.0 | |
| 20260905120114 | 66 | 0.0 | 0.0 | 0.00 | 0.30 | 0.00 | 65 | 1007.8 | |
| 20260905114600 | 66 | 0.0 | 0.0 | 0.00 | 0.40 | 0.00 | 66 | 1007.7 | |
| 20260905113100 | 65 | 0.0 | 0.0 | 0.00 | 0.40 | 0.00 | 69 | 1007.6 | |
| 20260905111613 | 66 | 0.0 | 0.0 | 0.00 | 0.40 | 0.00 | 68 | 1007.5 | |
| 20260905110106 | 65 | 0.0 | 0.0 | 0.00 | 0.40 | 0.00 | 67 | 1007.5 | |
| 20260905104603 | 66 | 0.0 | 0.0 | 0.00 | 0.43 | 0.00 | 67 | 1007.5 | |
| 20260905103058 | 65 | 0.0 | 0.0 | 0.00 | 0.43 | 0.00 | 69 | 1007.5 | |
| 20260905101600 | 65 | 0.0 | 0.0 | 0.00 | 0.43 | 0.00 | 69 | 1007.2 | |
| 20260905094558 | 64 | 0.0 | 0.0 | 0.00 | 0.44 | 0.00 | 73 | 1007.0 | |
| 20260905093059 | 64 | 0.0 | 0.0 | 0.00 | 0.44 | 0.00 | 74 | 1007.0 | |
| 20260905091623 | 63 | 0.0 | 0.0 | 0.00 | 0.44 | 0.00 | 76 | 1006.8 | |
| 20260905090119 | 63 | 0.0 | 0.0 | 0.00 | 0.44 | 0.00 | 75 | 1006.7 | |
| 20260905084610 | 63 | 0.0 | 0.0 | 0.00 | 0.48 | 0.00 | 75 | 1006.6 | |
| 20260905083100 | 63 | 0.0 | 0.0 | 0.00 | 0.48 | 0.00 | 77 | 1006.4 | |
| 20260905081601 | 63 | 0.0 | 0.0 | 0.00 | 0.48 | 0.00 | 78 | 1006.4 | |
| 20260905080101 | 63 | 0.0 | 0.0 | 0.00 | 0.48 | 0.00 | 80 | 1006.2 | |
| 20260905074603 | 62 | 0.0 | 0.0 | 0.00 | 0.48 | 0.00 | 83 | 1006.2 | |
| 20260905073102 | 61 | 0.0 | 0.0 | 0.00 | 0.48 | 0.00 | 84 | 1006.2 | |
| 20260905071601 | 60 | 0.0 | 0.0 | 0.00 | 0.48 | 0.00 | 85 | 1005.9 | |
| 20260905070117 | 60 | 0.0 | 0.0 | 0.00 | 0.48 | 0.00 | 86 | 1005.9 | |
| 20260905064557 | 59 | 0.0 | 0.0 | 0.00 | 0.48 | 0.00 | 88 | 1005.8 | |
| 20260905063101 | 58 | 0.0 | 0.0 | 0.00 | 0.48 | 0.00 | 88 | 1005.8 | |
| 20260905061620 | 58 | 0.0 | 0.0 | 0.00 | 0.48 | 0.00 | 88 | 1005.6 | |
| 20260905060118 | 58 | 0.0 | 0.0 | 0.00 | 0.48 | 0.00 | 89 | 1005.5 | |
| 20260905054600 | 57 | 0.0 | 0.0 | 0.00 | 0.48 | 0.00 | 89 | 1005.6 | |
| 20260905053105 | 57 | 0.0 | 0.0 | 0.00 | 0.48 | 0.00 | 89 | 1005.3 | |
| 20260905051604 | 57 | 0.0 | 0.0 | 0.00 | 0.48 | 0.00 | 89 | 1005.2 | |
| 20260905050106 | 56 | 0.0 | 0.0 | 0.00 | 0.48 | 0.00 | 90 | 1005.1 | |
| 20260905044605 | 56 | 0.0 | 0.0 | 0.00 | 0.48 | 0.00 | 91 | 1004.9 | |
| 20260905043104 | 56 | 0.0 | 0.0 | 0.00 | 0.48 | 0.00 | 91 | 1004.5 | |
| 20260905041607 | 56 | 0.0 | 0.0 | 0.00 | 0.48 | 0.00 | 91 | 1004.4 | |
| 20260905040058 | 56 | 0.0 | 0.0 | 0.00 | 0.48 | 0.00 | 91 | 1004.4 | |
| 20260905034613 | 56 | 0.0 | 0.0 | 0.00 | 0.48 | 0.00 | 90 | 1004.4 | |
| 20260905033100 | 56 | 0.0 | 0.0 | 0.00 | 0.48 | 0.00 | 89 | 1004.3 | |
| 20260905031604 | 56 | 0.0 | 0.0 | 0.00 | 0.48 | 0.00 | 89 | 1004.0 | |
| 20260905030105 | 56 | 0.0 | 0.0 | 0.00 | 0.48 | 0.00 | 89 | 1004.0 | |
| 20260905024602 | 56 | 0.0 | 0.0 | 0.00 | 0.48 | 0.00 | 89 | 1003.8 | |
| 20260905023104 | 56 | 0.0 | 0.0 | 0.00 | 0.48 | 0.00 | 89 | 1003.6 | |
| 20260905021604 | 57 | 0.0 | 0.0 | 0.00 | 0.48 | 0.00 | 89 | 1003.4 | |
| 20260905020106 | 57 | 0.0 | 0.0 | 0.00 | 0.48 | 0.00 | 90 | 1003.2 | |
| 20260905014604 | 57 | 0.0 | 0.0 | 0.00 | 0.49 | 0.00 | 91 | 1003.0 | |
| 20260905013110 | 57 | 0.0 | 0.0 | 0.00 | 0.49 | 0.00 | 91 | 1002.8 | |
| 20260905011605 | 57 | 0.0 | 0.0 | 0.00 | 0.49 | 0.00 | 92 | 1002.5 | |
| 20260905010108 | 57 | 0.0 | 0.0 | 0.00 | 0.49 | 0.00 | 92 | 1002.4 | |
| 20260905004601 | 57 | 0.0 | 0.0 | 0.00 | 0.51 | 0.00 | 92 | 1002.4 | |
| 20260905003101 | 57 | 0.0 | 0.0 | 0.00 | 0.51 | 0.00 | 92 | 1002.2 | |
| 20260905001607 | 57 | 0.0 | 0.0 | 0.00 | 0.51 | 0.00 | 92 | 1002.2 | |
| 20260905000114 | 57 | 0.0 | 0.0 | 0.00 | 0.51 | 0.00 | 92 | 1002.0 | |
| 20260904234607 | 57 | 0.0 | 0.0 | 0.00 | 0.51 | 0.00 | 92 | 1002.0 | |
| 20260904233122 | 57 | 0.0 | 0.0 | 0.00 | 0.51 | 0.00 | 92 | 1002.0 | |
| 20260904231609 | 57 | 0.0 | 0.0 | 0.00 | 0.51 | 0.00 | 92 | 1002.0 |